Time,TemperatureF,DewpointF,PressureIn,WindDirection,WindDirectionDegrees,WindSpeedMPH,WindSpeedGustMPH,Humidity,HourlyPrecipIn,Conditions,Clouds,dailyrainin,SoftwareType,DateUTC
2014-09-01 00:13:00,73.0,71.0,29.82,South,190,2.0,8.0,92,0.00,,,0.00,,2014-09-01 05:13:00,
2014-09-01 00:52:00,72.0,70.0,29.83,South,176,0.0,5.0,93,0.00,,,0.00,,2014-09-01 05:52:00,
2014-09-01 01:12:00,72.0,70.0,29.82,SSE,148,0.0,6.0,94,0.00,,,0.00,,2014-09-01 06:12:00,
2014-09-01 01:22:00,71.0,69.0,29.81,SSW,192,2.0,7.0,94,0.00,,,0.00,,2014-09-01 06:22:00,
2014-09-01 01:52:00,71.0,69.0,29.80,South,174,2.0,5.0,95,0.00,,,0.00,,2014-09-01 06:52:00,
2014-09-01 03:22:00,71.0,70.0,29.78,SSW,206,2.0,6.0,96,0.00,,,0.00,,2014-09-01 08:22:00,
2014-09-01 04:12:00,71.0,70.0,29.76,SW,236,1.0,7.0,96,0.01,,,0.01,,2014-09-01 09:12:00,
2014-09-01 04:22:00,71.0,70.0,29.75,SSW,201,2.0,7.0,96,0.01,,,0.01,,2014-09-01 09:22:00,
2014-09-01 04:44:00,71.0,70.0,29.75,South,172,1.0,7.0,96,0.01,,,0.01,,2014-09-01 09:44:00,
2014-09-01 04:54:00,71.0,70.0,29.75,SSW,197,1.0,4.0,96,0.00,,,0.01,,2014-09-01 09:54:00,
2014-09-01 06:13:00,72.0,71.0,29.74,SSW,207,0.0,1.0,96,0.00,,,0.01,,2014-09-01 11:13:00,
2014-09-01 06:23:00,72.0,71.0,29.73,South,173,0.0,2.0,96,0.00,,,0.01,,2014-09-01 11:23:00,
2014-09-01 06:52:00,72.0,71.0,29.74,SW,215,2.0,5.0,96,0.00,,,0.01,,2014-09-01 11:52:00,
2014-09-01 07:42:00,72.0,70.0,29.73,SW,222,3.0,6.0,95,0.00,,,0.01,,2014-09-01 12:42:00,
2014-09-01 07:53:00,73.0,71.0,29.71,WSW,238,1.0,7.0,95,0.00,,,0.01,,2014-09-01 12:53:00,
2014-09-01 08:12:00,73.0,71.0,29.71,South,180,3.0,8.0,94,0.00,,,0.01,,2014-09-01 13:12:00,
2014-09-01 08:42:00,73.0,71.0,29.71,SSW,196,4.0,12.0,94,0.00,,,0.01,,2014-09-01 13:42:00,
2014-09-01 08:52:00,73.0,71.0,29.70,South,189,2.0,12.0,93,0.00,,,0.01,,2014-09-01 13:52:00,
2014-09-01 09:22:00,74.0,72.0,29.67,South,189,3.0,10.0,92,0.00,,,0.01,,2014-09-01 14:22:00,
2014-09-01 09:42:00,74.0,72.0,29.70,SW,229,3.0,7.0,92,0.00,,,0.01,,2014-09-01 14:42:00,
2014-09-01 09:52:00,74.0,71.0,29.70,WSW,250,2.0,9.0,91,0.00,,,0.01,,2014-09-01 14:52:00,
2014-09-01 10:12:00,74.0,71.0,29.71,ENE,68,2.0,8.0,91,0.00,,,0.01,,2014-09-01 15:12:00,
2014-09-01 10:22:00,74.0,71.0,29.72,South,183,1.0,6.0,91,0.00,,,0.01,,2014-09-01 15:22:00,
2014-09-01 10:54:00,76.0,72.0,29.74,NE,46,3.0,10.0,87,0.00,,,0.01,,2014-09-01 15:54:00,
2014-09-01 11:13:00,77.0,72.0,29.74,SW,228,0.0,11.0,84,0.00,,,0.01,,2014-09-01 16:13:00,
2014-09-01 11:24:00,77.0,71.0,29.74,SW,220,3.0,13.0,81,0.00,,,0.01,,2014-09-01 16:24:00,
2014-09-01 11:43:00,77.0,70.0,29.74,SE,138,1.0,8.0,79,0.00,,,0.01,,2014-09-01 16:43:00,
2014-09-01 12:13:00,78.0,71.0,29.75,NNE,15,5.0,9.0,79,0.00,,,0.01,,2014-09-01 17:13:00,
2014-09-01 12:23:00,77.0,70.0,29.75,NNW,337,2.0,11.0,78,0.00,,,0.01,,2014-09-01 17:23:00,
2014-09-01 12:43:00,78.0,71.0,29.75,NNE,32,3.0,9.0,78,0.00,,,0.01,,2014-09-01 17:43:00,
2014-09-01 13:13:00,78.0,70.0,29.77,SSW,212,2.0,10.0,76,0.00,,,0.01,,2014-09-01 18:13:00,
2014-09-01 13:52:00,79.0,69.0,29.76,North,355,1.0,9.0,71,0.00,,,0.01,,2014-09-01 18:52:00,
2014-09-01 14:22:00,80.0,68.0,29.76,ESE,104,1.0,6.0,67,0.00,,,0.01,,2014-09-01 19:22:00,
2014-09-01 14:42:00,80.0,68.0,29.76,SSW,210,2.0,6.0,68,0.00,,,0.01,,2014-09-01 19:42:00,
2014-09-01 15:12:00,81.0,69.0,29.75,SW,236,3.0,9.0,66,0.00,,,0.01,,2014-09-01 20:12:00,
2014-09-01 15:52:00,81.0,68.0,29.75,NNE,16,0.0,7.0,65,0.00,,,0.01,,2014-09-01 20:52:00,
2014-09-01 16:22:00,82.0,69.0,29.75,WSW,250,1.0,6.0,65,0.00,,,0.01,,2014-09-01 21:22:00,
2014-09-01 16:54:00,82.0,69.0,29.76,SW,232,1.0,11.0,66,0.00,,,0.01,,2014-09-01 21:54:00,
2014-09-01 17:13:00,81.0,69.0,29.76,South,189,3.0,8.0,67,0.00,,,0.01,,2014-09-01 22:13:00,
2014-09-01 17:43:00,81.0,69.0,29.76,WSW,255,2.0,9.0,67,0.00,,,0.01,,2014-09-01 22:43:00,
2014-09-01 18:13:00,82.0,70.0,29.76,NNW,327,1.0,5.0,67,0.00,,,0.01,,2014-09-01 23:13:00,
2014-09-01 18:43:00,81.0,69.0,29.78,West,265,1.0,6.0,67,0.00,,,0.01,,2014-09-01 23:43:00,
2014-09-01 18:53:00,80.0,69.0,29.77,SSW,200,1.0,5.0,69,0.00,,,0.01,,2014-09-01 23:53:00,
2014-09-01 19:12:00,78.0,68.0,29.78,SW,226,0.0,6.0,72,0.00,,,0.01,,2014-09-02 00:12:00,
2014-09-01 19:22:00,77.0,68.0,29.77,SSW,200,0.0,6.0,75,0.00,,,0.01,,2014-09-02 00:22:00,